This demonstration page uses our WeatherBlox Daily Observations layout. Learn more.

Hourly Observations for March 25, 2020

Temp ( °F °C ) Dew Point ( °F °C ) Humidity (%) Winds ( mph kmh ) Pressure ( in mb ) Visibility ( mi km ) Precip ( " mm )
12:15 am 00:15 Clear 46 8 44 6.5 90 90 S 8 13 29.82 1010 10 16.0934 0 0
12:35 am 00:35 Clear 47 8.5 44 6.9 90 90 S 8 13 29.82 1010 10 16.0934 0 0
12:55 am 00:55 Clear 48 9 45 7 87 87 S 9 15 29.8 1009 10 16.0934 0 0
1:15 am 01:15 Clear 48 9.1 45 7 87 87 S 10 17 29.8 1009 10 16.0934 0 0
1:35 am 01:35 Clear 48 9 44 6.7 86 86 S 12 19 29.8 1009 10 16.0934 0 0
1:55 am 01:55 Clear 47 8.6 43 6.3 86 86 S 9 15 29.81 1009 10 16.0934 0 0
2:15 am 02:15 Clear 47 8.2 43 6 86 86 SSW 8 13 29.8 1009 10 16.0934 0 0
2:35 am 02:35 Clear 46 7.5 41 5 84 84 SW 6 9 29.82 1010 10 16.0934 0 0
2:55 am 02:55 Clear 45 7.2 40 4.6 84 84 SW 7 11 29.81 1009 10 16.0934 0 0
3:15 am 03:15 Clear 46 7.7 40 4.6 81 81 SW 7 11 29.79 1009 10 16.0934 0 0
3:35 am 03:35 Clear 46 7.8 39 4.1 78 78 SSW 9 15 29.78 1009 10 16.0934 0 0
3:55 am 03:55 Clear 46 7.6 39 3.9 78 78 S 5 7 29.77 1008 10 16.0934 0 0
4:15 am 04:15 Clear 43 6.1 38 3.4 83 83 S 3 6 29.79 1009 10 16.0934 0 0
4:35 am 04:35 Clear 41 5.2 37 3 86 86 S 3 6 29.79 1009 10 16.0934 0 0
4:55 am 04:55 Clear 41 5.2 37 2.9 85 85 S 5 7 29.77 1008 10 16.0934 0 0
5:15 am 05:15 Clear 42 5.3 38 3.3 87 87 S 6 9 29.76 1008 10 16.0934 0 0
5:35 am 05:35 Clear 42 5.8 39 3.9 88 88 SSW 6 9 29.76 1008 10 16.0934 0 0
5:55 am 05:55 Clear 43 6.2 40 4.3 88 88 SSW 5 7 29.76 1008 10 16.0934 0 0
6:15 am 06:15 Clear 42 5.6 39 4.1 90 90 Calm 29.76 1008 10 16.0934 0 0
6:35 am 06:35 Clear 39 3.7 36 2.3 91 91 Calm 29.78 1008 10 16.0934 0 0
6:55 am 06:55 Clear 38 3.5 36 2.3 92 92 ESE 3 6 29.77 1008 10 16.0934 0 0
7:15 am 07:15 Clear 39 4 38 3.1 94 94 ENE 5 7 29.77 1008 10 16.0934 0 0
7:35 am 07:35 Sunny 39 4 38 3.1 94 94 ESE 8 13 29.75 1007 10 16.0934 0 0
7:55 am 07:55 Sunny with Mist and Fog 40 4.3 38 3.6 95 95 ESE 7 11 29.74 1007 5 8.0467 0 0
8:15 am 08:15 Sunny with Mist and Fog 41 4.8 40 4.2 96 96 SE 5 7 29.73 1007 5 8.0467 0 0
8:35 am 08:35 Sunny 43 6 41 5.2 95 95 SE 3 6 29.72 1006 7 11.26538 0 0
8:55 am 08:55 Sunny 44 6.8 43 6 95 95 SSE 5 7 29.71 1006 7 11.26538 0 0
9:15 am 09:15 Sunny 47 8.6 46 7.8 95 95 S 10 17 29.69 1005 10 16.0934 0 0
9:35 am 09:35 Sunny 49 9.4 47 8.2 92 92 SSW 5 7 29.69 1005 10 16.0934 0 0
9:55 am 09:55 Sunny 52 11 48 9.1 88 88 SSW 8 13 29.67 1005 10 16.0934 0 0
10:15 am 10:15 Sunny 54 12.4 49 9.4 82 82 SW 10 17 29.65 1004 10 16.0934 0 0
10:35 am 10:35 Sunny 56 13.4 47 8.5 72 72 SW 9 15 29.64 1004 10 16.0934 0 0
10:55 am 10:55 Sunny 58 14.3 46 7.9 66 66 WSW 8 13 29.65 1004 10 16.0934 0 0
11:15 am 11:15 Sunny 60 15.5 46 7.5 59 59 W 8 13 29.64 1004 10 16.0934 0 0
11:35 am 11:35 Sunny 61 16.1 46 7.5 57 57 WNW 7 11 29.63 1003 10 16.0934 0 0
11:55 am 11:55 Sunny 63 17.2 45 7.2 52 52 W 6 9 29.61 1003 10 16.0934 0 0
12:15 pm 12:15 Sunny 65 18.2 44 6.8 48 48 WNW 7 11 29.6 1002 10 16.0934 0 0
12:35 pm 12:35 Sunny 67 19.7 44 6.5 42 42 W 7 11 29.59 1002 10 16.0934 0 0
12:55 pm 12:55 Sunny 71 21.5 41 5.1 34 34 W 9 15 29.57 1001 10 16.0934 0 0
1:15 pm 13:15 Sunny 74 23.3 38 3.3 27 27 WNW 16 26 29.55 1001 10 16.0934 0 0
1:35 pm 13:35 Sunny 74 23.1 34 1.3 24 24 NW 15 24 29.55 1001 10 16.0934 0 0
1:55 pm 13:55 Sunny 74 23.5 34 0.9 23 23 NNW 13 20 29.55 1001 10 16.0934 0 0
2:15 pm 14:15 Sunny 73 22.7 33 0.6 23 23 NW 13 20 29.56 1001 10 16.0934 0 0
2:35 pm 14:35 Sunny 73 23 34 1.2 24 24 NW 15 24 29.54 1000 10 16.0934 0 0
2:55 pm 14:55 Sunny 74 23.4 34 1.2 23 23 NW 14 22 29.54 1000 10 16.0934 0 0
3:15 pm 15:15 Sunny 74 23.2 33 0.7 23 23 NNW 10 17 29.54 1000 10 16.0934 0 0
3:35 pm 15:35 Sunny 74 23.6 34 1.1 23 23 NW 17 28 29.54 1000 10 16.0934 0 0
3:55 pm 15:55 Sunny 75 23.7 33 0.6 22 22 NW 17 28 29.54 1000 10 16.0934 0 0
4:15 pm 16:15 Sunny 74 23.5 33 0.4 22 22 WNW 14 22 29.55 1001 10 16.0934 0 0
4:35 pm 16:35 Sunny 74 23.6 32 0.1 21 21 NW 13 20 29.55 1001 10 16.0934 0 0
4:55 pm 16:55 Sunny 74 23.5 33 0.3 22 22 WNW 12 19 29.55 1001 10 16.0934 0 0
5:15 pm 17:15 Sunny 73 23 32 -0.1 22 22 NW 13 20 29.55 1001 10 16.0934 0 0
5:35 pm 17:35 Sunny 73 23 32 0.2 22 22 NW 10 17 29.56 1001 10 16.0934 0 0
5:55 pm 17:55 Sunny 72 22.3 32 0 23 23 NNW 10 17 29.56 1001 10 16.0934 0 0
6:15 pm 18:15 Sunny 72 22 32 0 23 23 NNW 8 13 29.57 1001 10 16.0934 0 0
6:35 pm 18:35 Sunny 70 21.2 32 0.1 25 25 N 18 30 29.58 1002 7 11.26538 0 0
6:55 pm 18:55 Sunny 63 17 45 7.2 53 53 NE 24 39 29.63 1003 10 16.0934 0 0
7:15 pm 19:15 Sunny 58 14.7 45 7 60 60 NE 21 33 29.66 1004 10 16.0934 0 0
7:35 pm 19:35 Sunny 56 13.2 44 6.5 64 64 NNE 21 33 29.68 1005 10 16.0934 0 0
7:55 pm 19:55 Sunny 53 11.8 43 6.1 68 68 NNE 20 31 29.71 1006 10 16.0934 0 0
8:15 pm 20:15 Clear 51 10.5 42 5.8 73 73 NE 22 35 29.72 1006 10 16.0934 0 0
8:35 pm 20:35 Clear 49 9.4 42 5.3 76 76 NNE 18 30 29.75 1007 10 16.0934 0 0
8:55 pm 20:55 Clear 47 8.6 41 5 78 78 NNE 23 37 29.75 1007 10 16.0934 0 0
9:15 pm 21:15 Clear 46 7.7 41 4.9 83 83 NE 21 33 29.77 1008 10 16.0934 0 0
9:35 pm 21:35 Clear 45 7.2 40 4.7 84 84 NNE 21 33 29.79 1009 10 16.0934 0 0
9:55 pm 21:55 Partly Cloudy 44 6.7 40 4.6 87 87 NE 14 22 29.8 1009 10 16.0934 0 0
10:15 pm 22:15 Cloudy 44 6.6 40 4.6 87 87 NE 21 33 29.81 1010 10 16.0934 0 0
10:35 pm 22:35 Cloudy 44 6.5 40 4.5 87 87 NE 23 37 29.81 1010 10 16.0934 0 0
10:55 pm 22:55 Cloudy 43 6.2 40 4.3 88 88 NNE 23 37 29.82 1010 10 16.0934 0 0
11:15 pm 23:15 Cloudy 43 6.2 40 4.5 89 89 NE 24 39 29.82 1010 10 16.0934 0 0
11:35 pm 23:35 Cloudy 43 6 40 4.2 88 88 NE 16 26 29.82 1010 10 16.0934 0 0
11:55 pm 23:55 Cloudy 42 5.6 39 4 90 90 NNE 20 31 29.82 1010 10 16.0934 0 0

Powered by AerisWeather